Tiempo cada hora Barra

Hoy, 13 Mayo, Jueves

Tiempo Temperatura Precipitaciones Viento Presión Humedad
00:00 +23°C° 0 mm 2 mps 725 mmHg 55%
01:00 +23°C° 0 mm 2 mps 725 mmHg 59%
02:00 +21°C° 0 mm 2 mps 725 mmHg 62%
03:00 +21°C° 0 mm 2 mps 725 mmHg 66%
04:00 +21°C° 0 mm 2 mps 725 mmHg 67%
05:00 +21°C° 0 mm 1 mps 726 mmHg 67%
06:00 +21°C° 0 mm 1 mps 726 mmHg 68%
07:00 +24°C° 0 mm 1 mps 726 mmHg 59%
08:00 +27°C° 0 mm 1 mps 727 mmHg 50%
09:00 +29°C° 0 mm 1 mps 727 mmHg 41%
10:00 +31°C° 0 mm 1 mps 727 mmHg 37%
11:00 +33°C° 0 mm 1 mps 726 mmHg 33%
12:00 +34°C° 0 mm 1 mps 726 mmHg 29%
13:00 +34°C° 0 mm 1 mps 725 mmHg 28%
14:00 +35°C° 0 mm 1 mps 724 mmHg 27%
15:00 +35°C° 0 mm 1 mps 724 mmHg 26%
16:00 +32°C° 0 mm 1 mps 724 mmHg 31%
17:00 +30°C° 0 mm 1 mps 724 mmHg 35%
18:00 +28°C° 0 mm 1 mps 724 mmHg 40%
19:00 +27°C° 0 mm 1 mps 724 mmHg 42%
20:00 +26°C° 0 mm 1 mps 725 mmHg 43%
21:00 +26°C° 0 mm 1 mps 725 mmHg 45%
22:00 +25°C° 0 mm 1 mps 725 mmHg 48%
23:00 +24°C° 0 mm 1 mps 725 mmHg 50%

Mañana, 14 Mayo, Viernes

Tiempo Temperatura Precipitaciones Viento Presión Humedad
00:00 +24°C° 0 mm 1 mps 725 mmHg 53%
01:00 +23°C° 0 mm 1 mps 725 mmHg 56%
02:00 +23°C° 0 mm 2 mps 725 mmHg 59%
03:00 +23°C° 0 mm 2 mps 724 mmHg 62%
04:00 +23°C° 0 mm 2 mps 725 mmHg 65%
05:00 +21°C° 0 mm 2 mps 725 mmHg 67%
06:00 +21°C° 0 mm 2 mps 725 mmHg 70%
07:00 +25°C° 0 mm 2 mps 726 mmHg 62%
08:00 +27°C° 0 mm 3 mps 726 mmHg 54%
09:00 +30°C° 0 mm 3 mps 727 mmHg 46%
10:00 +31°C° 0 mm 3 mps 726 mmHg 41%
11:00 +34°C° 0 mm 3 mps 726 mmHg 36%
12:00 +35°C° 0 mm 3 mps 726 mmHg 31%
13:00 +36°C° 0 mm 3 mps 725 mmHg 29%
14:00 +36°C° 0 mm 2 mps 724 mmHg 27%
15:00 +36°C° 0 mm 2 mps 723 mmHg 26%
16:00 +34°C° 0 mm 2 mps 723 mmHg 30%
17:00 +31°C° 0 mm 2 mps 723 mmHg 34%
18:00 +29°C° 0 mm 1 mps 723 mmHg 39%
19:00 +28°C° 0 mm 2 mps 724 mmHg 40%
20:00 +28°C° 0 mm 2 mps 724 mmHg 41%
21:00 +28°C° 0 mm 3 mps 725 mmHg 42%
22:00 +27°C° 0 mm 4 mps 725 mmHg 46%
23:00 +27°C° 0 mm 4 mps 725 mmHg 51%

Pasado mañana, 15 Mayo, Sábado

Tiempo Temperatura Precipitaciones Viento Presión Humedad
00:00 +26°C° 0 mm 5 mps 726 mmHg 56%
01:00 +25°C° 0 mm 5 mps 725 mmHg 60%
02:00 +25°C° 0 mm 4 mps 725 mmHg 63%
03:00 +23°C° 0 mm 4 mps 725 mmHg 67%
04:00 +22°C° 0 mm 4 mps 725 mmHg 69%
05:00 +22°C° 0 mm 3 mps 725 mmHg 71%
06:00 +21°C° 0 mm 3 mps 726 mmHg 73%
07:00 +24°C° 0 mm 2 mps 726 mmHg 64%
08:00 +27°C° 0 mm 2 mps 727 mmHg 55%
09:00 +29°C° 0 mm 2 mps 727 mmHg 46%
10:00 +31°C° 0 mm 2 mps 727 mmHg 41%
11:00 +32°C° 0 mm 1 mps 726 mmHg 36%
12:00 +34°C° 0 mm 1 mps 726 mmHg 31%
13:00 +34°C° 0 mm 1 mps 725 mmHg 30%
14:00 +35°C° 0 mm 1 mps 724 mmHg 29%
15:00 +35°C° 0 mm 1 mps 724 mmHg 27%
16:00 +33°C° 0 mm 1 mps 724 mmHg 32%
17:00 +31°C° 0 mm 1 mps 724 mmHg 37%
18:00 +29°C° 0 mm 1 mps 724 mmHg 41%
19:00 +28°C° 0 mm 2 mps 724 mmHg 43%
20:00 +28°C° 0 mm 2 mps 725 mmHg 45%
21:00 +28°C° 0 mm 3 mps 725 mmHg 47%
22:00 +27°C° 0 mm 3 mps 726 mmHg 52%
23:00 +27°C° 0 mm 4 mps 726 mmHg 56%

16 Mayo, Domingo

Tiempo Temperatura Precipitaciones Viento Presión Humedad
00:00 +26°C° 0 mm 5 mps 726 mmHg 60%
01:00 +26°C° 0 mm 4 mps 725 mmHg 63%
02:00 +25°C° 0 mm 4 mps 725 mmHg 66%
03:00 +23°C° 0 mm 4 mps 725 mmHg 69%
04:00 +24°C° 0 mm 3 mps 725 mmHg 71%
05:00 +22°C° 0 mm 3 mps 725 mmHg 74%
06:00 +23°C° 0 mm 2 mps 725 mmHg 76%
07:00 +25°C° 0 mm 3 mps 726 mmHg 67%
08:00 +27°C° 0 mm 3 mps 727 mmHg 59%
09:00 +29°C° 0 mm 3 mps 727 mmHg 50%
10:00 +31°C° 0 mm 3 mps 727 mmHg 45%
11:00 +32°C° 0 mm 2 mps 726 mmHg 40%
12:00 +34°C° 0 mm 2 mps 726 mmHg 35%
13:00 +35°C° 0 mm 2 mps 725 mmHg 33%
14:00 +35°C° 0 mm 2 mps 725 mmHg 32%
15:00 +36°C° 0 mm 2 mps 724 mmHg 30%
16:00 +34°C° 0 mm 2 mps 724 mmHg 34%
17:00 +31°C° 0 mm 1 mps 724 mmHg 38%
18:00 +30°C° 0 mm 1 mps 724 mmHg 42%
19:00 +29°C° 0 mm 2 mps 725 mmHg 43%
20:00 +29°C° 0 mm 3 mps 725 mmHg 45%
21:00 +29°C° 0 mm 4 mps 726 mmHg 47%
22:00 +28°C° 0 mm 4 mps 726 mmHg 51%
23:00 +27°C° 0 mm 4 mps 726 mmHg 55%

17 Mayo, Lunes

Tiempo Temperatura Precipitaciones Viento Presión Humedad
00:00 +26°C° 0 mm 4 mps 726 mmHg 59%
01:00 +26°C° 0 mm 4 mps 726 mmHg 60%
02:00 +25°C° 0 mm 4 mps 725 mmHg 61%
03:00 +25°C° 0 mm 4 mps 725 mmHg 63%
04:00 +23°C° 0 mm 4 mps 725 mmHg 65%
05:00 +24°C° 0 mm 3 mps 725 mmHg 68%
06:00 +22°C° 0 mm 3 mps 725 mmHg 71%
07:00 +25°C° 0 mm 3 mps 726 mmHg 64%
08:00 +27°C° 0 mm 2 mps 727 mmHg 57%
09:00 +29°C° 0 mm 2 mps 727 mmHg 51%
10:00 +30°C° 0 mm 2 mps 727 mmHg 45%
11:00 +32°C° 0 mm 2 mps 727 mmHg 40%
12:00 +35°C° 0 mm 2 mps 726 mmHg 35%
13:00 +35°C° 0 mm 2 mps 725 mmHg 33%
14:00 +36°C° 0 mm 2 mps 725 mmHg 32%
15:00 +36°C° 0 mm 2 mps 724 mmHg 30%
16:00 +34°C° 0 mm 2 mps 724 mmHg 35%
17:00 +31°C° 0 mm 2 mps 724 mmHg 40%
18:00 +29°C° 0 mm 2 mps 724 mmHg 44%
19:00 +28°C° 0 mm 2 mps 724 mmHg 46%
20:00 +28°C° 0 mm 2 mps 725 mmHg 48%
21:00 +27°C° 0 mm 2 mps 725 mmHg 49%
22:00 +27°C° 0 mm 3 mps 725 mmHg 50%
23:00 +27°C° 0 mm 4 mps 726 mmHg 50%

18 Mayo, Martes

Tiempo Temperatura Precipitaciones Viento Presión Humedad
00:00 +28°C° 0 mm 4 mps 726 mmHg 50%
01:00 +26°C° 0 mm 4 mps 725 mmHg 53%
02:00 +25°C° 0 mm 3 mps 725 mmHg 55%
03:00 +24°C° 0 mm 3 mps 725 mmHg 58%
04:00 +24°C° 0 mm 2 mps 725 mmHg 61%
05:00 +23°C° 0 mm 2 mps 725 mmHg 63%
06:00 +23°C° 0 mm 2 mps 725 mmHg 66%
07:00 +25°C° 0 mm 2 mps 726 mmHg 58%
08:00 +28°C° 0 mm 2 mps 726 mmHg 49%
09:00 +31°C° 0 mm 2 mps 727 mmHg 41%
10:00 +32°C° 0 mm 2 mps 726 mmHg 37%
11:00 +35°C° 0 mm 2 mps 726 mmHg 33%
12:00 +36°C° 0 mm 1 mps 726 mmHg 29%
13:00 +36°C° 0 mm 1 mps 725 mmHg 28%
14:00 +36°C° 0 mm 1 mps 724 mmHg 27%
15:00 +37°C° 0 mm 2 mps 724 mmHg 26%
16:00 +35°C° 0 mm 2 mps 724 mmHg 30%
17:00 +32°C° 0 mm 1 mps 724 mmHg 34%
18:00 +30°C° 0 mm 1 mps 724 mmHg 37%
19:00 +30°C° 0 mm 1 mps 724 mmHg 39%
20:00 +29°C° 0 mm 1 mps 725 mmHg 40%
21:00 +29°C° 0 mm 1 mps 725 mmHg 42%
22:00 +28°C° 0 mm 1 mps 725 mmHg 44%
23:00 +28°C° 0 mm 2 mps 725 mmHg 46%
Mostrar más

Necesitamos Su Consentimiento

Meteoprog y nuestros Proveedores de Servicios pueden almacenar y acceder a sus datos personales como cookies, identificadores de dispositivo u otras tecnologías similares de su dispositivo y procesar dichos datos para personalizar contenido y anuncios, además de ofrecer funciones de redes sociales y analizar el tráfico.

  • Almacenar y/o acceder a información en su dispositivo

    Se puede almacenar o acceder a cookies, identificadores de dispositivo u otra información de su dispositivo para los fines anteriormente indicados.

  • Anuncios y contenido personalizados, medición de anuncios y contenido, percepciones del público, y desarrollo de productos

    Los anuncios y el contenido pueden personalizarse en base a su perfil. Se pueden añadir más datos para personalizar mejor los anuncios y contenidos. Se puede medir el rendimiento de los anuncios y contenidos. Se puede obtener la percepción sobre el público que ha visto los anuncios y contenidos. Dichos datos pueden usarse para desarrollar o mejorar la experiencia del usuario, sistemas y software.

Al hacer clic en ‘Estoy De Acuerdo’ usted permitirá el uso de las cookies, identificadores de dispositivo, balizas web u otras tecnologías similares indicadas. Su configuración puede cambiarse desde el navegador de su dispositivo.

Para ciertos fines, los intereses legítimos pueden ser considerados por encima del consentimiento. Puede leer más sobre ello en nuestra Política de Privacidad y Cookies.